owner,sensor,date,latitude,longitude,air_pressure(mBar),qcFlag 
TABS,ioos:station:wmo:42044:1,2002-05-11T00:00:00Z,26.1914,-97.0507,1019.69,11111222 
TABS,ioos:station:wmo:42044:1,2002-05-12T00:00:00Z,26.1914,-97.0507,1019.69,11111222 
TABS,ioos:station:wmo:42044:1,2002-05-13T00:00:00Z,26.1914,-97.0507,1019.69,11111222 
TABS,ioos:station:wmo:42044:1,2002-05-14T00:00:00Z,26.1914,-97.0507,1019.69,11111222 
TABS,ioos:station:wmo:42044:1,2002-05-14T15:39:00Z,26.1914,-97.0507,1019.69,11111222 
TABS,ioos:station:wmo:42044:1,2002-05-14T17:09:00Z,26.1914,-97.0507,1019.63,11111222 
TABS,ioos:station:wmo:42044:1,2002-05-14T17:39:00Z,26.1914,-97.0507,1019.12,11111222 
TABS,ioos:station:wmo:42044:1,2002-05-14T18:09:00Z,26.1914,-97.0507,1019.06,11111222 
TABS,ioos:station:wmo:42044:1,2002-05-14T18:39:00Z,26.1914,-97.0507,1018.87,11111222 
TABS,ioos:station:wmo:42044:1,2002-05-14T20:09:00Z,26.1914,-97.0507,1018.3,11111222 
TABS,ioos:station:wmo:42044:1,2002-05-14T20:39:00Z,26.1914,-97.0507,1018.04,11111222 
TABS,ioos:station:wmo:42044:1,2002-05-14T21:39:00Z,26.1914,-97.0507,1017.72,11111222 
TABS,ioos:station:wmo:42044:1,2002-05-15T02:39:00Z,26.1914,-97.0507,1017.09,11111222 
TABS,ioos:station:wmo:42044:1,2002-05-15T04:39:00Z,26.1914,-97.0507,1017.28,11111222 
TABS,ioos:station:wmo:42044:1,2002-05-15T06:09:00Z,26.1914,-97.0507,1017.53,11111222 
TABS,ioos:station:wmo:42044:1,2002-05-15T07:39:00Z,26.1914,-97.0507,1016.33,11111222 
TABS,ioos:station:wmo:42044:1,2002-05-15T08:09:00Z,26.1914,-97.0507,1016.01,11111222 
TABS,ioos:station:wmo:42044:1,2002-05-15T09:09:00Z,26.1914,-97.0507,1015.57,11111222 
TABS,ioos:station:wmo:42044:1,2002-05-15T09:39:00Z,26.1914,-97.0507,1015.38,11111222 
TABS,ioos:station:wmo:42044:1,2002-05-15T10:09:00Z,26.1914,-97.0507,1015.19,11111222 
TABS,ioos:station:wmo:42044:1,2002-05-15T11:09:00Z,26.1914,-97.0507,1015.57,11111222 
TABS,ioos:station:wmo:42044:1,2002-05-15T13:39:00Z,26.1914,-97.0507,1016.39,11111222 
TABS,ioos:station:wmo:42044:1,2002-05-15T14:09:00Z,26.1914,-97.0507,1016.52,11111222 
TABS,ioos:station:wmo:42044:1,2002-05-15T14:39:00Z,26.1914,-97.0507,1016.58,11111222 
TABS,ioos:station:wmo:42044:1,2002-05-15T15:09:00Z,26.1914,-97.0507,1016.65,11111222 
TABS,ioos:station:wmo:42044:1,2002-05-15T15:39:00Z,26.1914,-97.0507,1016.9,11111222 
TABS,ioos:station:wmo:42044:1,2002-05-15T16:39:00Z,26.1914,-97.0507,1016.71,11111222 
TABS,ioos:station:wmo:42044:1,2002-05-15T17:09:00Z,26.1914,-97.0507,1016.52,11111222 
TABS,ioos:station:wmo:42044:1,2002-05-15T17:39:00Z,26.1914,-97.0507,1016.07,11111222 
TABS,ioos:station:wmo:42044:1,2002-05-15T19:09:00Z,26.1914,-97.0507,1015.06,11111222 
TABS,ioos:station:wmo:42044:1,2002-05-15T19:39:00Z,26.1914,-97.0507,1014.87,11111222 
TABS,ioos:station:wmo:42044:1,2002-05-15T21:39:00Z,26.1914,-97.0507,1013.79,11111222 
TABS,ioos:station:wmo:42044:1,2002-05-15T22:39:00Z,26.1914,-97.0507,1013.34,11111222 
TABS,ioos:station:wmo:42044:1,2002-05-15T23:39:00Z,26.1914,-97.0507,1013.09,11111222 
TABS,ioos:station:wmo:42044:1,2002-05-16T00:09:00Z,26.1914,-97.0507,1013.03,11111222 
TABS,ioos:station:wmo:42044:1,2002-05-16T03:39:00Z,26.1914,-97.0507,1013.92,11111222 
TABS,ioos:station:wmo:42044:1,2002-05-16T05:09:00Z,26.1914,-97.0507,1014.68,11111222 
TABS,ioos:station:wmo:42044:1,2002-05-16T08:09:00Z,26.1914,-97.0507,1013.15,11111222 
TABS,ioos:station:wmo:42044:1,2002-05-16T08:39:00Z,26.1914,-97.0507,1012.84,11111222 
TABS,ioos:station:wmo:42044:1,2002-05-16T10:09:00Z,26.1914,-97.0507,1013.03,11111222 
TABS,ioos:station:wmo:42044:1,2002-05-16T10:39:00Z,26.1914,-97.0507,1013.15,11111222 
TABS,ioos:station:wmo:42044:1,2002-05-16T11:09:00Z,26.1914,-97.0507,1013.22,11111222 
TABS,ioos:station:wmo:42044:1,2002-05-16T15:39:00Z,26.1914,-97.0507,1013.6,11111222 
TABS,ioos:station:wmo:42044:1,2002-05-16T16:09:00Z,26.1914,-97.0507,1013.47,11111222 
TABS,ioos:station:wmo:42044:1,2002-05-16T18:09:00Z,26.1914,-97.0507,1013.22,11111222 
TABS,ioos:station:wmo:42044:1,2002-05-16T18:39:00Z,26.1914,-97.0507,1012.96,11111222 
TABS,ioos:station:wmo:42044:1,2002-05-16T19:09:00Z,26.1914,-97.0507,1012.9,11111222 
TABS,ioos:station:wmo:42044:1,2002-05-16T19:39:00Z,26.1914,-97.0507,1012.52,11111222 
TABS,ioos:station:wmo:42044:1,2002-05-16T20:09:00Z,26.1914,-97.0507,1012.2,11111222 
TABS,ioos:station:wmo:42044:1,2002-05-16T21:09:00Z,26.1914,-97.0507,1011.69,11111222 
TABS,ioos:station:wmo:42044:1,2002-05-16T21:39:00Z,26.1914,-97.0507,1011.38,11111222 
TABS,ioos:station:wmo:42044:1,2002-05-16T22:09:00Z,26.1914,-97.0507,1011.19,11111222 
TABS,ioos:station:wmo:42044:1,2002-05-17T03:09:00Z,26.1914,-97.0507,1011.88,11111222 
TABS,ioos:station:wmo:42044:1,2002-05-17T04:09:00Z,26.1914,-97.0507,1012.46,11111222 
TABS,ioos:station:wmo:42044:1,2002-05-17T04:39:00Z,26.1914,-97.0507,1012.46,11111222 
TABS,ioos:station:wmo:42044:1,2002-05-17T09:39:00Z,26.1914,-97.0507,1010.23,11111222 
TABS,ioos:station:wmo:42044:1,2002-05-17T10:39:00Z,26.1914,-97.0507,1010.04,11111222 
TABS,ioos:station:wmo:42044:1,2002-05-17T11:09:00Z,26.1914,-97.0507,1010.42,11111222 
TABS,ioos:station:wmo:42044:1,2002-05-17T12:09:00Z,26.1914,-97.0507,1010.93,11111222 
TABS,ioos:station:wmo:42044:1,2002-05-17T12:39:00Z,26.1914,-97.0507,1011.19,11111222 
TABS,ioos:station:wmo:42044:1,2002-05-17T13:09:00Z,26.1914,-97.0507,1011.31,11111222 
TABS,ioos:station:wmo:42044:1,2002-05-17T13:39:00Z,26.1914,-97.0507,1011.44,11111222 
TABS,ioos:station:wmo:42044:1,2002-05-17T14:09:00Z,26.1914,-97.0507,1011.19,11111222 
TABS,ioos:station:wmo:42044:1,2002-05-17T14:39:00Z,26.1914,-97.0507,1011.19,11111222 
TABS,ioos:station:wmo:42044:1,2002-05-17T15:39:00Z,26.1914,-97.0507,1011.12,11111222 
TABS,ioos:station:wmo:42044:1,2002-05-17T16:09:00Z,26.1914,-97.0507,1011.19,11111222 
TABS,ioos:station:wmo:42044:1,2002-05-17T18:09:00Z,26.1914,-97.0507,1010.55,11111222 
TABS,ioos:station:wmo:42044:1,2002-05-17T18:39:00Z,26.1914,-97.0507,1010.36,11111222 
TABS,ioos:station:wmo:42044:1,2002-05-17T19:39:00Z,26.1914,-97.0507,1010.11,11111222 
TABS,ioos:station:wmo:42044:1,2002-05-17T22:09:00Z,26.1914,-97.0507,1008.96,11111222 
TABS,ioos:station:wmo:42044:1,2002-05-18T00:39:00Z,26.1914,-97.0507,1009.22,11111222 
TABS,ioos:station:wmo:42044:1,2002-05-18T02:39:00Z,26.1914,-97.0507,1010.87,11111222 
TABS,ioos:station:wmo:42044:1,2002-05-18T04:09:00Z,26.1914,-97.0507,1013.28,11111222 
TABS,ioos:station:wmo:42044:1,2002-05-18T06:39:00Z,26.1914,-97.0507,1012.9,11111222 
TABS,ioos:station:wmo:42044:1,2002-05-18T07:09:00Z,26.1914,-97.0507,1013.03,11111222 
TABS,ioos:station:wmo:42044:1,2002-05-18T07:39:00Z,26.1914,-97.0507,1015.12,11111222 
TABS,ioos:station:wmo:42044:1,2002-05-18T08:39:00Z,26.1914,-97.0507,1012.9,11111222 
TABS,ioos:station:wmo:42044:1,2002-05-18T09:09:00Z,26.1914,-97.0507,1013.34,11111222 
TABS,ioos:station:wmo:42044:1,2002-05-18T11:39:00Z,26.1914,-97.0507,1014.68,11111222 
TABS,ioos:station:wmo:42044:1,2002-05-18T14:09:00Z,26.1914,-97.0507,1015.88,11111222 
TABS,ioos:station:wmo:42044:1,2002-05-18T14:39:00Z,26.1914,-97.0507,1016.33,11111222 
TABS,ioos:station:wmo:42044:1,2002-05-18T17:09:00Z,26.1914,-97.0507,1017.98,11111222 
TABS,ioos:station:wmo:42044:1,2002-05-18T18:39:00Z,26.1914,-97.0507,1017.47,11111222 
TABS,ioos:station:wmo:42044:1,2002-05-18T22:09:00Z,26.1914,-97.0507,1017.34,11111222 
TABS,ioos:station:wmo:42044:1,2002-05-19T00:09:00Z,26.1914,-97.0507,1017.34,11111222 
TABS,ioos:station:wmo:42044:1,2002-05-19T01:09:00Z,26.1914,-97.0507,1017.41,11111222 
TABS,ioos:station:wmo:42044:1,2002-05-19T04:09:00Z,26.1914,-97.0507,1018.68,11111222 
TABS,ioos:station:wmo:42044:1,2002-05-19T05:39:00Z,26.1914,-97.0507,1018.93,11111222 
TABS,ioos:station:wmo:42044:1,2002-05-19T08:09:00Z,26.1914,-97.0507,1017.53,11111222 
TABS,ioos:station:wmo:42044:1,2002-05-19T08:39:00Z,26.1914,-97.0507,1017.66,11111222 
TABS,ioos:station:wmo:42044:1,2002-05-19T09:09:00Z,26.1914,-97.0507,1017.92,11111222 
TABS,ioos:station:wmo:42044:1,2002-05-19T10:09:00Z,26.1914,-97.0507,1018.17,11111222 
TABS,ioos:station:wmo:42044:1,2002-05-19T11:39:00Z,26.1914,-97.0507,1018.42,11111222 
TABS,ioos:station:wmo:42044:1,2002-05-19T13:09:00Z,26.1914,-97.0507,1019.5,11111222 
TABS,ioos:station:wmo:42044:1,2002-05-19T14:39:00Z,26.1914,-97.0507,1020.2,11111222 
TABS,ioos:station:wmo:42044:1,2002-05-19T15:09:00Z,26.1914,-97.0507,1020.45,11111222 
TABS,ioos:station:wmo:42044:1,2002-05-19T15:39:00Z,26.1914,-97.0507,1020.64,11111222 
TABS,ioos:station:wmo:42044:1,2002-05-19T17:39:00Z,26.1914,-97.0507,1020.96,11111222 
TABS,ioos:station:wmo:42044:1,2002-05-19T20:09:00Z,26.1914,-97.0507,1020.01,11111222 
TABS,ioos:station:wmo:42044:1,2002-05-19T20:39:00Z,26.1914,-97.0507,1019.44,11111222 
TABS,ioos:station:wmo:42044:1,2002-05-19T21:39:00Z,26.1914,-97.0507,1019.06,11111222 
TABS,ioos:station:wmo:42044:1,2002-05-19T23:09:00Z,26.1914,-97.0507,1018.93,11111222 
TABS,ioos:station:wmo:42044:1,2002-05-20T00:39:00Z,26.1914,-97.0507,1018.87,11111222 
TABS,ioos:station:wmo:42044:1,2002-05-20T02:09:00Z,26.1914,-97.0507,1019.25,11111222 
TABS,ioos:station:wmo:42044:1,2002-05-20T02:39:00Z,26.1914,-97.0507,1019.44,11111222 
TABS,ioos:station:wmo:42044:1,2002-05-20T04:09:00Z,26.1914,-97.0507,1019.82,11111222 
TABS,ioos:station:wmo:42044:1,2002-05-20T04:39:00Z,26.1914,-97.0507,1019.88,11111222 
TABS,ioos:station:wmo:42044:1,2002-05-20T05:09:00Z,26.1914,-97.0507,1020.14,11111222 
TABS,ioos:station:wmo:42044:1,2002-05-20T07:39:00Z,26.1914,-97.0507,1019.5,11111222 
TABS,ioos:station:wmo:42044:1,2002-05-20T10:09:00Z,26.1914,-97.0507,1019.06,11111222 
TABS,ioos:station:wmo:42044:1,2002-05-20T12:39:00Z,26.1914,-97.0507,1020.39,11111222 
TABS,ioos:station:wmo:42044:1,2002-05-20T16:09:00Z,26.1914,-97.0507,1021.09,11111222 
TABS,ioos:station:wmo:42044:1,2002-05-20T16:39:00Z,26.1914,-97.0507,1021.15,11111222 
TABS,ioos:station:wmo:42044:1,2002-05-20T17:09:00Z,26.1914,-97.0507,1021.03,11111222 
TABS,ioos:station:wmo:42044:1,2002-05-20T18:39:00Z,26.1914,-97.0507,1020.14,11111222 
TABS,ioos:station:wmo:42044:1,2002-05-20T19:39:00Z,26.1914,-97.0507,1019.63,11111222 
TABS,ioos:station:wmo:42044:1,2002-05-20T20:39:00Z,26.1914,-97.0507,1019.31,11111222 
TABS,ioos:station:wmo:42044:1,2002-05-20T21:09:00Z,26.1914,-97.0507,1019.25,11111222 
TABS,ioos:station:wmo:42044:1,2002-05-20T23:39:00Z,26.1914,-97.0507,1018.61,11111222 
TABS,ioos:station:wmo:42044:1,2002-05-21T00:09:00Z,26.1914,-97.0507,1018.87,11111222 
TABS,ioos:station:wmo:42044:1,2002-05-21T00:39:00Z,26.1914,-97.0507,1019.06,11111222 
TABS,ioos:station:wmo:42044:1,2002-05-21T01:39:00Z,26.1914,-97.0507,1019.44,11111222 
TABS,ioos:station:wmo:42044:1,2002-05-21T02:39:00Z,26.1914,-97.0507,1019.37,11111222 
TABS,ioos:station:wmo:42044:1,2002-05-21T03:09:00Z,26.1914,-97.0507,1019.63,11111222 
TABS,ioos:station:wmo:42044:1,2002-05-21T03:39:00Z,26.1914,-97.0507,1019.82,11111222 
TABS,ioos:station:wmo:42044:1,2002-05-21T06:09:00Z,26.1914,-97.0507,1018.68,11111222 
TABS,ioos:station:wmo:42044:1,2002-05-21T06:39:00Z,26.1914,-97.0507,1018.42,11111222 
TABS,ioos:station:wmo:42044:1,2002-05-21T07:09:00Z,26.1914,-97.0507,1018.04,11111222 
TABS,ioos:station:wmo:42044:1,2002-05-21T08:09:00Z,26.1914,-97.0507,1017.92,11111222 
TABS,ioos:station:wmo:42044:1,2002-05-21T10:09:00Z,26.1914,-97.0507,1017.47,11111222 
TABS,ioos:station:wmo:42044:1,2002-05-21T10:39:00Z,26.1914,-97.0507,1017.72,11111222 
TABS,ioos:station:wmo:42044:1,2002-05-21T17:09:00Z,26.1914,-97.0507,1019.5,11111222 
TABS,ioos:station:wmo:42044:1,2002-05-21T17:39:00Z,26.1914,-97.0507,1019.44,11111222 
TABS,ioos:station:wmo:42044:1,2002-05-21T18:09:00Z,26.1914,-97.0507,1019.25,11111222 
TABS,ioos:station:wmo:42044:1,2002-05-21T19:09:00Z,26.1914,-97.0507,1018.74,11111222 
TABS,ioos:station:wmo:42044:1,2002-05-21T19:39:00Z,26.1914,-97.0507,1018.68,11111222 
TABS,ioos:station:wmo:42044:1,2002-05-21T20:09:00Z,26.1914,-97.0507,1018.55,11111222 
TABS,ioos:station:wmo:42044:1,2002-05-21T23:09:00Z,26.1914,-97.0507,1017.15,11111222 
TABS,ioos:station:wmo:42044:1,2002-05-22T02:39:00Z,26.1914,-97.0507,1017.92,11111222 
TABS,ioos:station:wmo:42044:1,2002-05-22T03:39:00Z,26.1914,-97.0507,1018.04,11111222 
TABS,ioos:station:wmo:42044:1,2002-05-22T04:09:00Z,26.1914,-97.0507,1018.11,11111222 
TABS,ioos:station:wmo:42044:1,2002-05-22T04:39:00Z,26.1914,-97.0507,1018.23,11111222 
TABS,ioos:station:wmo:42044:1,2002-05-22T10:39:00Z,26.1914,-97.0507,1015.63,11111222 
TABS,ioos:station:wmo:42044:1,2002-05-22T11:09:00Z,26.1914,-97.0507,1015.76,11111222 
TABS,ioos:station:wmo:42044:1,2002-05-22T14:39:00Z,26.1914,-97.0507,1016.96,11111222 
TABS,ioos:station:wmo:42044:1,2002-05-22T15:39:00Z,26.1914,-97.0507,1017.09,11111222 
TABS,ioos:station:wmo:42044:1,2002-05-22T17:09:00Z,26.1914,-97.0507,1017.09,11111222 
TABS,ioos:station:wmo:42044:1,2002-05-22T21:09:00Z,26.1914,-97.0507,1015.76,11111222 
TABS,ioos:station:wmo:42044:1,2002-05-22T22:09:00Z,26.1914,-97.0507,1015.38,11111222 
TABS,ioos:station:wmo:42044:1,2002-05-22T22:39:00Z,26.1914,-97.0507,1015.25,11111222 
TABS,ioos:station:wmo:42044:1,2002-05-22T23:39:00Z,26.1914,-97.0507,1015.25,11111222 
TABS,ioos:station:wmo:42044:1,2002-05-23T00:39:00Z,26.1914,-97.0507,1015.19,11111222 
TABS,ioos:station:wmo:42044:1,2002-05-23T01:39:00Z,26.1914,-97.0507,1015.57,11111222 
TABS,ioos:station:wmo:42044:1,2002-05-23T02:09:00Z,26.1914,-97.0507,1015.63,11111222 
TABS,ioos:station:wmo:42044:1,2002-05-23T03:39:00Z,26.1914,-97.0507,1016.07,11111222 
TABS,ioos:station:wmo:42044:1,2002-05-23T05:09:00Z,26.1914,-97.0507,1016.14,11111222 
TABS,ioos:station:wmo:42044:1,2002-05-23T06:39:00Z,26.1914,-97.0507,1015.12,11111222 
TABS,ioos:station:wmo:42044:1,2002-05-23T08:09:00Z,26.1914,-97.0507,1014.3,11111222 
TABS,ioos:station:wmo:42044:1,2002-05-23T09:09:00Z,26.1914,-97.0507,1013.98,11111222 
TABS,ioos:station:wmo:42044:1,2002-05-23T13:39:00Z,26.1914,-97.0507,1014.55,11111222 
TABS,ioos:station:wmo:42044:1,2002-05-23T14:09:00Z,26.1914,-97.0507,1014.74,11111222 
TABS,ioos:station:wmo:42044:1,2002-05-23T16:09:00Z,26.1914,-97.0507,1014.8,11111222 
TABS,ioos:station:wmo:42044:1,2002-05-23T18:09:00Z,26.1914,-97.0507,1014.23,11111222 
TABS,ioos:station:wmo:42044:1,2002-05-23T18:39:00Z,26.1914,-97.0507,1013.85,11111222 
TABS,ioos:station:wmo:42044:1,2002-05-23T19:09:00Z,26.1914,-97.0507,1013.73,11111222 
TABS,ioos:station:wmo:42044:1,2002-05-23T23:09:00Z,26.1914,-97.0507,1011.69,11111222 
TABS,ioos:station:wmo:42044:1,2002-05-23T23:39:00Z,26.1914,-97.0507,1011.88,11111222 
TABS,ioos:station:wmo:42044:1,2002-05-24T00:09:00Z,26.1914,-97.0507,1011.82,11111222 
TABS,ioos:station:wmo:42044:1,2002-05-24T03:09:00Z,26.1914,-97.0507,1013.79,11111222 
TABS,ioos:station:wmo:42044:1,2002-05-24T07:39:00Z,26.1914,-97.0507,1012.65,11111222 
TABS,ioos:station:wmo:42044:1,2002-05-24T08:39:00Z,26.1914,-97.0507,1013.03,11111222 
TABS,ioos:station:wmo:42044:1,2002-05-24T09:09:00Z,26.1914,-97.0507,1013.03,11111222 
TABS,ioos:station:wmo:42044:1,2002-05-24T09:39:00Z,26.1914,-97.0507,1012.9,11111222 
TABS,ioos:station:wmo:42044:1,2002-05-24T11:09:00Z,26.1914,-97.0507,1012.71,11111222 
TABS,ioos:station:wmo:42044:1,2002-05-24T13:09:00Z,26.1914,-97.0507,1013.22,11111222 
TABS,ioos:station:wmo:42044:1,2002-05-24T14:39:00Z,26.1914,-97.0507,1013.41,11111222 
TABS,ioos:station:wmo:42044:1,2002-05-24T15:39:00Z,26.1914,-97.0507,1013.41,11111222 
TABS,ioos:station:wmo:42044:1,2002-05-24T16:39:00Z,26.1914,-97.0507,1013.54,11111222 
TABS,ioos:station:wmo:42044:1,2002-05-24T17:09:00Z,26.1914,-97.0507,1013.79,11111222 
TABS,ioos:station:wmo:42044:1,2002-05-24T19:09:00Z,26.1914,-97.0507,1013.54,11111222 
TABS,ioos:station:wmo:42044:1,2002-05-24T20:09:00Z,26.1914,-97.0507,1012.58,11111222 
TABS,ioos:station:wmo:42044:1,2002-05-24T23:39:00Z,26.1914,-97.0507,1011.5,11111222 
TABS,ioos:station:wmo:42044:1,2002-05-25T00:39:00Z,26.1914,-97.0507,1011.76,11111222 
TABS,ioos:station:wmo:42044:1,2002-05-25T01:09:00Z,26.1914,-97.0507,1011.88,11111222 
TABS,ioos:station:wmo:42044:1,2002-05-25T02:09:00Z,26.1914,-97.0507,1012.2,11111222 
TABS,ioos:station:wmo:42044:1,2002-05-25T04:09:00Z,26.1914,-97.0507,1012.9,11111222 
TABS,ioos:station:wmo:42044:1,2002-05-25T05:09:00Z,26.1914,-97.0507,1012.9,11111222 
TABS,ioos:station:wmo:42044:1,2002-05-25T05:39:00Z,26.1914,-97.0507,1012.77,11111222 
TABS,ioos:station:wmo:42044:1,2002-05-25T06:09:00Z,26.1914,-97.0507,1012.96,11111222 
TABS,ioos:station:wmo:42044:1,2002-05-25T07:09:00Z,26.1914,-97.0507,1012.71,11111222 
TABS,ioos:station:wmo:42044:1,2002-05-25T08:09:00Z,26.1914,-97.0507,1012.65,11111222 
TABS,ioos:station:wmo:42044:1,2002-05-25T08:39:00Z,26.1914,-97.0507,1012.33,11111222 
TABS,ioos:station:wmo:42044:1,2002-05-25T12:09:00Z,26.1914,-97.0507,1012.96,11111222 
TABS,ioos:station:wmo:42044:1,2002-05-25T12:39:00Z,26.1914,-97.0507,1013.47,11111222 
TABS,ioos:station:wmo:42044:1,2002-05-25T15:09:00Z,26.1914,-97.0507,1014.93,11111222 
TABS,ioos:station:wmo:42044:1,2002-05-25T15:39:00Z,26.1914,-97.0507,1015.0,11111222 
TABS,ioos:station:wmo:42044:1,2002-05-25T16:39:00Z,26.1914,-97.0507,1014.68,11111222 
TABS,ioos:station:wmo:42044:1,2002-05-25T17:39:00Z,26.1914,-97.0507,1014.93,11111222 
TABS,ioos:station:wmo:42044:1,2002-05-25T18:09:00Z,26.1914,-97.0507,1014.74,11111222 
TABS,ioos:station:wmo:42044:1,2002-05-25T20:39:00Z,26.1914,-97.0507,1013.79,11111222 
TABS,ioos:station:wmo:42044:1,2002-05-25T22:09:00Z,26.1914,-97.0507,1013.15,11111222 
TABS,ioos:station:wmo:42044:1,2002-05-26T03:09:00Z,26.1914,-97.0507,1014.36,11111222 
TABS,ioos:station:wmo:42044:1,2002-05-26T03:39:00Z,26.1914,-97.0507,1014.61,11111222 
TABS,ioos:station:wmo:42044:1,2002-05-26T04:09:00Z,26.1914,-97.0507,1015.06,11111222 
TABS,ioos:station:wmo:42044:1,2002-05-26T05:39:00Z,26.1914,-97.0507,1015.31,11111222 
TABS,ioos:station:wmo:42044:1,2002-05-26T07:09:00Z,26.1914,-97.0507,1015.5,11111222 
TABS,ioos:station:wmo:42044:1,2002-05-26T07:39:00Z,26.1914,-97.0507,1015.5,11111222 
TABS,ioos:station:wmo:42044:1,2002-05-26T08:39:00Z,26.1914,-97.0507,1014.55,11111222 
TABS,ioos:station:wmo:42044:1,2002-05-26T11:39:00Z,26.1914,-97.0507,1014.68,11111222 
TABS,ioos:station:wmo:42044:1,2002-05-26T17:39:00Z,26.1914,-97.0507,1016.46,11111222 
TABS,ioos:station:wmo:42044:1,2002-05-26T18:39:00Z,26.1914,-97.0507,1016.07,11111222 
TABS,ioos:station:wmo:42044:1,2002-05-26T20:39:00Z,26.1914,-97.0507,1015.38,11111222 
TABS,ioos:station:wmo:42044:1,2002-05-26T22:09:00Z,26.1914,-97.0507,1014.42,11111222 
TABS,ioos:station:wmo:42044:1,2002-05-26T22:39:00Z,26.1914,-97.0507,1014.36,11111222 
TABS,ioos:station:wmo:42044:1,2002-05-26T23:09:00Z,26.1914,-97.0507,1014.11,11111222 
TABS,ioos:station:wmo:42044:1,2002-05-27T00:09:00Z,26.1914,-97.0507,1013.85,11111222 
TABS,ioos:station:wmo:42044:1,2002-05-27T00:39:00Z,26.1914,-97.0507,1013.92,11111222 
TABS,ioos:station:wmo:42044:1,2002-05-27T01:39:00Z,26.1914,-97.0507,1013.98,11111222 
TABS,ioos:station:wmo:42044:1,2002-05-27T05:39:00Z,26.1914,-97.0507,1013.92,11111222 
TABS,ioos:station:wmo:42044:1,2002-05-27T07:39:00Z,26.1914,-97.0507,1013.09,11111222 
TABS,ioos:station:wmo:42044:1,2002-05-27T09:09:00Z,26.1914,-97.0507,1012.96,11111222 
TABS,ioos:station:wmo:42044:1,2002-05-27T11:09:00Z,26.1914,-97.0507,1013.41,11111222 
TABS,ioos:station:wmo:42044:1,2002-05-27T11:39:00Z,26.1914,-97.0507,1013.47,11111222 
TABS,ioos:station:wmo:42044:1,2002-05-27T12:09:00Z,26.1914,-97.0507,1013.79,11111222 
TABS,ioos:station:wmo:42044:1,2002-05-27T13:39:00Z,26.1914,-97.0507,1014.55,11111222 
TABS,ioos:station:wmo:42044:1,2002-05-27T15:09:00Z,26.1914,-97.0507,1014.11,11111222 
TABS,ioos:station:wmo:42044:1,2002-05-27T15:39:00Z,26.1914,-97.0507,1014.11,11111222 
TABS,ioos:station:wmo:42044:1,2002-05-27T17:09:00Z,26.1914,-97.0507,1013.85,11111222 
TABS,ioos:station:wmo:42044:1,2002-05-27T19:09:00Z,26.1914,-97.0507,1012.9,11111222 
TABS,ioos:station:wmo:42044:1,2002-05-27T21:09:00Z,26.1914,-97.0507,1011.5,11111222 
TABS,ioos:station:wmo:42044:1,2002-05-27T22:09:00Z,26.1914,-97.0507,1010.87,11111222 
TABS,ioos:station:wmo:42044:1,2002-05-28T00:39:00Z,26.1914,-97.0507,1011.06,11111222 
TABS,ioos:station:wmo:42044:1,2002-05-28T01:39:00Z,26.1914,-97.0507,1011.57,11111222 
TABS,ioos:station:wmo:42044:1,2002-05-28T02:09:00Z,26.1914,-97.0507,1011.88,11111222 
TABS,ioos:station:wmo:42044:1,2002-05-28T02:39:00Z,26.1914,-97.0507,1011.88,11111222 
TABS,ioos:station:wmo:42044:1,2002-05-28T04:09:00Z,26.1914,-97.0507,1012.2,11111222 
TABS,ioos:station:wmo:42044:1,2002-05-28T05:09:00Z,26.1914,-97.0507,1011.5,11111222 
TABS,ioos:station:wmo:42044:1,2002-05-28T06:09:00Z,26.1914,-97.0507,1011.06,11111222 
TABS,ioos:station:wmo:42044:1,2002-05-28T06:39:00Z,26.1914,-97.0507,1011.06,11111222 
TABS,ioos:station:wmo:42044:1,2002-05-28T10:39:00Z,26.1914,-97.0507,1010.68,11111222 
TABS,ioos:station:wmo:42044:1,2002-05-28T18:09:00Z,26.1914,-97.0507,1010.81,11111222 
TABS,ioos:station:wmo:42044:1,2002-05-28T19:09:00Z,26.1914,-97.0507,1010.49,11111222 
TABS,ioos:station:wmo:42044:1,2002-05-28T19:39:00Z,26.1914,-97.0507,1010.55,11111222 
TABS,ioos:station:wmo:42044:1,2002-05-28T23:39:00Z,26.1914,-97.0507,1009.54,11111222 
TABS,ioos:station:wmo:42044:1,2002-05-29T00:39:00Z,26.1914,-97.0507,1009.98,11111222 
TABS,ioos:station:wmo:42044:1,2002-05-29T01:39:00Z,26.1914,-97.0507,1010.42,11111222 
TABS,ioos:station:wmo:42044:1,2002-05-29T02:09:00Z,26.1914,-97.0507,1010.68,11111222 
TABS,ioos:station:wmo:42044:1,2002-05-29T03:09:00Z,26.1914,-97.0507,1011.12,11111222 
TABS,ioos:station:wmo:42044:1,2002-05-29T03:39:00Z,26.1914,-97.0507,1011.25,11111222 
TABS,ioos:station:wmo:42044:1,2002-05-29T05:39:00Z,26.1914,-97.0507,1010.87,11111222 
TABS,ioos:station:wmo:42044:1,2002-05-29T08:39:00Z,26.1914,-97.0507,1009.92,11111222 
TABS,ioos:station:wmo:42044:1,2002-05-29T09:39:00Z,26.1914,-97.0507,1009.79,11111222 
TABS,ioos:station:wmo:42044:1,2002-05-29T11:39:00Z,26.1914,-97.0507,1010.04,11111222 
TABS,ioos:station:wmo:42044:1,2002-05-29T14:09:00Z,26.1914,-97.0507,1010.87,11111222 
TABS,ioos:station:wmo:42044:1,2002-05-29T15:09:00Z,26.1914,-97.0507,1011.31,11111222 
TABS,ioos:station:wmo:42044:1,2002-05-29T15:39:00Z,26.1914,-97.0507,1011.5,11111222 
TABS,ioos:station:wmo:42044:1,2002-05-29T16:09:00Z,26.1914,-97.0507,1011.63,11111222 
TABS,ioos:station:wmo:42044:1,2002-05-29T20:39:00Z,26.1914,-97.0507,1009.79,11111222 
TABS,ioos:station:wmo:42044:1,2002-05-29T21:39:00Z,26.1914,-97.0507,1009.47,11111222 
TABS,ioos:station:wmo:42044:1,2002-05-29T22:09:00Z,26.1914,-97.0507,1009.22,11111222 
TABS,ioos:station:wmo:42044:1,2002-05-29T22:39:00Z,26.1914,-97.0507,1009.41,11111222 
TABS,ioos:station:wmo:42044:1,2002-05-29T23:09:00Z,26.1914,-97.0507,1009.79,11111222 
TABS,ioos:station:wmo:42044:1,2002-05-30T00:09:00Z,26.1914,-97.0507,1009.41,11111222 
TABS,ioos:station:wmo:42044:1,2002-05-30T01:09:00Z,26.1914,-97.0507,1011.12,11111222 
TABS,ioos:station:wmo:42044:1,2002-05-30T02:09:00Z,26.1914,-97.0507,1010.17,11111222 
TABS,ioos:station:wmo:42044:1,2002-05-30T03:09:00Z,26.1914,-97.0507,1007.12,11111222 
TABS,ioos:station:wmo:42044:1,2002-05-30T03:39:00Z,26.1914,-97.0507,1007.76,11111222 
TABS,ioos:station:wmo:42044:1,2002-05-30T04:09:00Z,26.1914,-97.0507,1008.27,11111222 
TABS,ioos:station:wmo:42044:1,2002-05-30T06:09:00Z,26.1914,-97.0507,1009.6,11111222 
TABS,ioos:station:wmo:42044:1,2002-05-30T07:09:00Z,26.1914,-97.0507,1009.09,11111222 
TABS,ioos:station:wmo:42044:1,2002-05-30T09:39:00Z,26.1914,-97.0507,1008.08,11111222 
TABS,ioos:station:wmo:42044:1,2002-05-30T11:09:00Z,26.1914,-97.0507,1007.95,11111222 
TABS,ioos:station:wmo:42044:1,2002-05-30T12:39:00Z,26.1914,-97.0507,1008.33,11111222 
TABS,ioos:station:wmo:42044:1,2002-05-30T13:09:00Z,26.1914,-97.0507,1008.52,11111222 
TABS,ioos:station:wmo:42044:1,2002-05-30T13:39:00Z,26.1914,-97.0507,1008.71,11111222 
TABS,ioos:station:wmo:42044:1,2002-05-30T14:09:00Z,26.1914,-97.0507,1008.9,11111222 
TABS,ioos:station:wmo:42044:1,2002-05-30T14:39:00Z,26.1914,-97.0507,1009.03,11111222 
TABS,ioos:station:wmo:42044:1,2002-05-30T15:09:00Z,26.1914,-97.0507,1009.22,11111222 